| time (UTC) | temp F | wind direction | speed MPH | gust MPH | rain 1hr in | rain 24hr in | rain mn in | humidity % | barometer mb |
| 20260504000003 | 57 | 247 | 0.0 | 1.0 | 0.00 | 0.00 | 0.00 | 35 | 994.2 |
| 20260503234502 | 59 | 247 | 0.0 | 0.0 | 0.00 | 0.00 | 0.00 | 34 | 994.1 |
| 20260503233110 | 60 | 247 | 1.0 | 4.0 | 0.00 | 0.00 | 0.00 | 32 | 994.1 |
| 20260503231600 | 60 | 348 | 2.0 | 4.0 | 0.00 | 0.00 | 0.00 | 31 | 993.9 |
| 20260503230113 | 60 | 267 | 2.0 | 6.0 | 0.00 | 0.00 | 0.00 | 30 | 993.9 |
| 20260503224609 | 61 | 291 | 2.0 | 7.0 | 0.00 | 0.00 | 0.00 | 30 | 993.9 |
| 20260503223112 | 61 | 285 | 1.0 | 4.0 | 0.00 | 0.00 | 0.00 | 33 | 993.8 |
| 20260503221557 | 61 | 267 | 2.0 | 8.0 | 0.00 | 0.00 | 0.00 | 31 | 994.0 |
| 20260503220056 | 61 | 243 | 3.0 | 8.0 | 0.00 | 0.00 | 0.00 | 30 | 994.0 |
| 20260503214558 | 61 | 234 | 4.0 | 9.0 | 0.00 | 0.00 | 0.00 | 29 | 994.1 |
| 20260503213055 | 61 | 265 | 3.0 | 9.0 | 0.00 | 0.00 | 0.00 | 30 | 994.0 |
| 20260503211552 | 62 | 271 | 2.0 | 10.0 | 0.00 | 0.00 | 0.00 | 29 | 994.1 |
| 20260503210050 | 61 | 221 | 5.0 | 11.0 | 0.00 | 0.00 | 0.00 | 29 | 994.1 |
| 20260503204548 | 60 | 257 | 3.0 | 7.0 | 0.00 | 0.00 | 0.00 | 31 | 994.2 |
| 20260503203047 | 61 | 5 | 4.0 | 8.0 | 0.00 | 0.00 | 0.00 | 31 | 994.1 |
| 20260503201548 | 60 | 280 | 3.0 | 9.0 | 0.00 | 0.00 | 0.00 | 29 | 994.4 |
| 20260503200045 | 60 | 253 | 1.0 | 8.0 | 0.00 | 0.00 | 0.00 | 32 | 994.5 |
| 20260503194546 | 60 | 277 | 2.0 | 9.0 | 0.00 | 0.00 | 0.00 | 31 | 994.8 |
| 20260503193039 | 58 | 273 | 2.0 | 7.0 | 0.00 | 0.00 | 0.00 | 33 | 995.0 |
| 20260503191537 | 59 | 327 | 0.0 | 6.0 | 0.00 | 0.00 | 0.00 | 31 | 995.1 |
| 20260503190042 | 60 | 323 | 2.0 | 13.0 | 0.00 | 0.00 | 0.00 | 35 | 995.3 |
| 20260503184532 | 59 | 211 | 4.0 | 9.0 | 0.00 | 0.00 | 0.00 | 31 | 995.4 |
| 20260503183038 | 59 | 256 | 2.0 | 7.0 | 0.00 | 0.00 | 0.00 | 33 | 995.6 |
| 20260503181546 | 58 | 325 | 5.0 | 9.0 | 0.00 | 0.00 | 0.00 | 32 | 995.7 |
| 20260503180040 | 58 | 342 | 5.0 | 10.0 | 0.00 | 0.00 | 0.00 | 32 | 995.9 |
| 20260503174524 | 57 | 272 | 3.0 | 10.0 | 0.00 | 0.00 | 0.00 | 31 | 995.9 |
| 20260503173022 | 56 | 257 | 3.0 | 9.0 | 0.00 | 0.00 | 0.00 | 38 | 996.2 |
| 20260503171525 | 56 | 254 | 4.0 | 10.0 | 0.00 | 0.00 | 0.00 | 37 | 996.3 |
| 20260503081557 | 40 | 277 | 0.0 | 0.0 | 0.00 | 0.00 | 0.00 | 67 | 995.9 |
| 20260503071550 | 41 | 332 | 1.0 | 3.0 | 0.00 | 0.00 | 0.00 | 68 | 995.4 |
| 20260503054541 | 43 | 295 | 1.0 | 3.0 | 0.00 | 0.00 | 0.00 | 66 | 995.3 |
| 20260503053036 | 43 | 302 | 1.0 | 3.0 | 0.00 | 0.00 | 0.00 | 67 | 995.3 |
| 20260503051535 | 43 | 284 | 0.0 | 2.0 | 0.00 | 0.00 | 0.00 | 68 | 995.3 |
| 20260503050033 | 43 | 299 | 0.0 | 1.0 | 0.00 | 0.00 | 0.00 | 69 | 995.4 |
| 20260503044538 | 43 | 300 | 0.0 | 1.0 | 0.00 | 0.00 | 0.00 | 68 | 995.5 |
| 20260503043031 | 42 | 323 | 0.0 | 0.0 | 0.00 | 0.00 | 0.00 | 68 | 995.4 |
| 20260503041530 | 42 | 329 | 0.0 | 0.0 | 0.00 | 0.00 | 0.00 | 68 | 995.6 |
| 20260503040031 | 43 | 293 | 0.0 | 2.0 | 0.00 | 0.00 | 0.00 | 67 | 995.6 |
| 20260503034527 | 44 | 355 | 0.0 | 4.0 | 0.00 | 0.00 | 0.00 | 65 | 995.4 |
| 20260503033025 | 44 | 325 | 2.0 | 4.0 | 0.00 | 0.00 | 0.00 | 64 | 995.5 |
| 20260503031525 | 45 | 347 | 2.0 | 4.0 | 0.00 | 0.00 | 0.00 | 63 | 995.5 |
| 20260503030030 | 45 | 321 | 2.0 | 4.0 | 0.00 | 0.00 | 0.00 | 63 | 995.5 |
| 20260503024525 | 46 | 336 | 1.0 | 3.0 | 0.00 | 0.00 | 0.00 | 62 | 995.6 |
| 20260503023023 | 46 | 326 | 1.0 | 3.0 | 0.00 | 0.00 | 0.00 | 60 | 995.7 |
| 20260503021524 | 46 | 329 | 0.0 | 2.0 | 0.00 | 0.00 | 0.00 | 60 | 995.6 |
| 20260503020025 | 47 | 325 | 2.0 | 3.0 | 0.00 | 0.00 | 0.00 | 58 | 995.6 |
| 20260503014523 | 47 | 348 | 1.0 | 3.0 | 0.00 | 0.00 | 0.00 | 59 | 995.4 |
| 20260503013022 | 47 | 355 | 2.0 | 4.0 | 0.00 | 0.00 | 0.00 | 58 | 995.3 |
| 20260503011529 | 48 | 328 | 2.0 | 5.0 | 0.00 | 0.00 | 0.00 | 56 | 995.1 |
| 20260503010020 | 48 | 336 | 2.0 | 3.0 | 0.00 | 0.00 | 0.00 | 56 | 994.9 |
| 20260503004521 | 49 | 355 | 2.0 | 4.0 | 0.00 | 0.00 | 0.00 | 55 | 994.6 |
| 20260503003019 | 49 | 341 | 2.0 | 4.0 | 0.00 | 0.00 | 0.00 | 54 | 994.2 |
| 20260503001521 | 50 | 323 | 2.0 | 4.0 | 0.00 | 0.00 | 0.00 | 54 | 994.1 |